Regional Weather Roundup
Issued by NWS

Home | Current Version | Previous Version | Graphics & Text | Print | Product List | Glossary On
Versions: 1 2 3 4 5 6 7 8 9 10 11 12 13 14 15 16 17 18 19 20 21 22 23 24 25 26 27 28 29 30 31 32 33 34 35 36 37 38 39 40 41 42 43 44 45 46 47 48 49 50
000
ASUS43 KMPX 060610
RWRMN
WEATHER ROUNDUP FOR MINNESOTA
NATIONAL WEATHER SERVICE TWIN CITIES/CHANHASSEN MN
1200 AM CST TUE DEC 06 2016


NOTE: "FAIR" INDICATES FEW OR NO CLOUDS BELOW 12,000 FEET WITH NO
SIGNIFICANT WEATHER AND/OR OBSTRUCTIONS TO VISIBILITY. N/A MEANS
CURRENT SKY AND/OR WEATHER CONDITIONS ARE NOT AVAILABLE.

MNZ060>063-068>070-060700-
   Twin Cities Metro

CITY           SKY/WX    TMP DP  RH WIND       PRES   REMARKS
TWIN CITIES    CLOUDY    39  31  72 SW16      29.67R
6HR MIN TEMP:  37; 6HR MAX TEMP:  40; 6HR PCP: TRACE;

ST PAUL        CLOUDY    38  35  89 S9        29.68S
CRYSTAL        CLOUDY    37  27  67 SW20G28   29.65R
BLAINE         CLOUDY    39  36  87 SW13      29.65R
LAKEVILLE      CLOUDY    36  30  80 W12G18    29.69R
EDEN PRAIRIE   CLOUDY    37  30  75 SW15      29.66R
6HR MIN TEMP:  37; 6HR MAX TEMP:  41;

SOUTH ST PAUL  CLOUDY    38  35  86 S9        29.67S
LAKE ELMO      CLOUDY    37  34  87 S14       29.67S
$$
MNZ001>005-007-008-013>017-022>024-027-028-060700-
   Northwest Minnesota

CITY           SKY/WX    TMP DP  RH WIND       PRES   REMARKS
BEMIDJI        DRIZZLE   33  32  96 SE13      29.38F WCI  24
HALLOCK        LGT SNOW  30  30 100 NE14      29.45F VSB 3/4 WCI  20
ROSEAU         LGT SNOW  30  27  86 NE22G28   29.44F WCI  17
WARROAD        SNOW      30  27  86 E18G29    29.47F VSB 1/4 WCI  18
THIEF RVR FALL LGT SNOW  29  28  96 NE16      29.36F VSB 1   WCI  17
CROOKSTON      LGT SNOW  30  30 100 E13       29.36F WCI  20
FOSSTON        MIX PCPN  30  30 100 SE8       29.36F WCI  23
DETROIT LAKES  CLOUDY    30  30 100 SW20G29   29.43R WCI  18
MOORHEAD       LGT RAIN  27  25  93 W21G28    29.43R WCI  13
PARK RAPIDS    CLOUDY    33  28  81 SW23G35   29.43R WCI  21
$$
MNZ006-009>011-018-025>026-060700-
   North Central Minnesota

CITY           SKY/WX    TMP DP  RH WIND       PRES   REMARKS
BAUDETTE       LGT SNOW  30  28  92 E15G26    29.45F FOG     WCI  19
FLAG ISLAND    LGT SNOW  30  28  93 E15G22    29.50F WCI  19
INTL FALLS     MIX PCPN  31  29  92 E15       29.49F FOG     WCI  20
6HR MIN TEMP:  29; 6HR MAX TEMP:  31; 6HR PCP:  0.24;

WASKISH        MIX PCPN  34  32  93 E12       29.42F WCI  25
BIG FORK       DRIZZLE   34  32  93 SE12G21   29.47F WCI  25
LONGVILLE      CLOUDY    36  30  80 S17G29    29.45S
GRAND RAPIDS   CLOUDY    34  32  92 SE14G22   29.49F WCI  25
CRANE LAKE     LGT SNOW  30  30 100 SE3       29.58F
ORR            CLOUDY    32  30  93 SE9       29.49F WCI  24
COOK           MIX PCPN  34  32  93 SE13G20   29.52F WCI  25
$$
MNZ012-019>021-037-060700-
   Northeast Minnesota

CITY           SKY/WX    TMP DP  RH WIND       PRES   REMARKS
DULUTH         CLOUDY    35  32  88 SE15      29.57F WCI  25
6HR MIN TEMP:  33; 6HR MAX TEMP:  35; 6HR PCP:  0.03;

ELY            FLURRIES  34  32  93 SE8       29.60F WCI  27
HIBBING        CLOUDY    32  31  96 SE16G23   29.52F WCI  21
EVELETH        CLOUDY    34  32  92 SE13      29.55F FOG     WCI  25
DULUTH HARBOR  CLOUDY    37  34  87 SE14      29.63F
TWO HARBORS    CLOUDY    37  34  87 SE6       29.61F
SILVER BAY     LGT RAIN  36  34  93 SE8       29.64F
GRAND MARAIS     N/A     40  37  89 E17       29.72F
G MARAIS ARPRT FOG       32  28  86 E7G25     29.68F VSB 1/2 WCI  26
$$
MNZ029>031-032-039>041-046>048-054>057-064-060700-
   West Central Minnesota

CITY           SKY/WX    TMP DP  RH WIND       PRES   REMARKS
FERGUS FALLS   CLOUDY    25  21  86 W29G36    29.58R WCI   8
WHEATON        PTCLDY    23  18  80 W20G35    29.61S WCI   8
MORRIS         CLOUDY    25  19  80 W26G35    29.61R WCI   9
ALEXANDRIA     CLOUDY    27  22  81 W21G31    29.56S WCI  13
ELBOW LAKE     CLOUDY    24  20  84 SW26G36   29.58R WCI   8
WADENA         CLOUDY    28  25  86 SW21G29   29.50R WCI  15
GLENWOOD       CLOUDY    27  23  86 SW30G36   29.58S WCI  10
APPLETON       CLOUDY    27  18  69 W26G32    29.67R WCI  11
BENSON         CLOUDY    27  19  74 NW23      29.65R WCI  12
ORTONVILLE     PTCLDY    21  16  79 W22G29    29.64R WCI   5
MADISON        CLOUDY    27  19  74 W16G25    29.73R WCI  14
WILLMAR        CLOUDY    28  25  86 W25       29.67R WCI  14
$$
MNZ033>034-036-042>043-049>051-058-059-060700-
   Central Minnesota

CITY           SKY/WX    TMP DP  RH WIND       PRES   REMARKS
ST CLOUD       CLOUDY    34  28  79 SW16G25   29.61R WCI  24
6HR MIN TEMP:  34; 6HR MAX TEMP:  39;

PAYNESVILLE    CLOUDY    31  28  89 SW23G32   29.63S WCI  17
AITKIN         CLOUDY    37  28  70 S18G29    29.50R
PINE RIVER     CLOUDY    34  30  86 S15G23    29.51S WCI  24
BRAINERD       CLOUDY    34  29  82 S20G31    29.52R WCI  23
STAPLES        CLOUDY    30  27  86 SW18G28   29.52R WCI  18
LONG PRAIRIE   CLOUDY    30  25  80 S20G30    29.56R WCI  18
LITTLE FALLS   CLOUDY    34  28  80 SW15G29   29.57R WCI  24
LITCHFIELD     CLOUDY    34  27  75 W13G21    29.65R WCI  25
BUFFALO        CLOUDY    34  28  80 SW10G17   29.66R WCI  26
MAPLE LAKE     CLOUDY    34  30  84 SW14G25   29.65S WCI  25
$$
MNZ037-044-045-052-053-060700-
   East Central Minnesota

CITY           SKY/WX    TMP DP  RH WIND       PRES   REMARKS
PRINCETON      CLOUDY    37  30  75 SW9G20    29.63R
MORA           CLOUDY    36  32  87 SW14      29.61R
CAMBRIDGE      CLOUDY    39  28  65 S13G18    29.60R
RUSH CITY      CLOUDY    36  32  87 S12G17    29.61F
MOOSE LAKE     CLOUDY    36  32  87 S9        29.54F
HINCKLEY       CLOUDY    36  34  93 S14G20    29.59F
CLOQUET        CLOUDY    34  30  86 SE8       29.57F WCI  27
MCGREGOR       CLOUDY    36  32  87 S15G24    29.53F
$$
MNZ071>073-080-081-089-090-097-098-060700-
   Southwest Minnesota

CITY           SKY/WX    TMP DP  RH WIND       PRES   REMARKS
MONTEVIDEO     CLOUDY    27  19  74 NW18G32   29.71R WCI  13
GRANITE FALLS  CLOUDY    29  23  79 W22G31    29.73R WCI  15
CANBY          CLOUDY    26  20  77 NW22G31   29.72R WCI  12
MARSHALL       CLOUDY    26  20  77 W25G31    29.71R WCI  11
REDWOOD FALLS  MOCLDY    29  20  69 W22G29    29.71R WCI  15
OLIVIA         CLOUDY    30  25  80 W18G25    29.68R WCI  18
PIPESTONE      CLOUDY    25  19  80 W23G32    29.73S WCI  10
WINDOM         CLOUDY    28  23  80 W18       29.72S WCI  16
WORTHINGTON    CLOUDY    26  21  81 W21G30    29.74R WCI  12
JACKSON        MOCLDY    28  23  80 W20G29    29.73R WCI  15
TRACY          CLOUDY    28  22  79 W10G17    29.72R WCI  19
SLAYTON        CLOUDY    25  21  83 W17G30    29.71F WCI  12
$$
MNZ065>067-074>077-082>085-091>093-060700-
   South Central Minnesota

CITY           SKY/WX    TMP DP  RH WIND       PRES   REMARKS
MANKATO        CLOUDY    34  28  79 W14       29.72R WCI  25
NEW ULM        CLOUDY    30  25  80 W22       29.71R WCI  17
ST JAMES       CLOUDY    32  27  80 W22G28    29.74R WCI  19
FAIRMONT       CLOUDY    33  27  78 W16       29.75R WCI  23
GLENCOE        CLOUDY    34  30  86 SW13G21   29.68R WCI  25
FARIBAULT      CLOUDY    37  30  75 SW17G24   29.71R
OWATONNA       CLOUDY    36  30  80 SW14      29.72R
WASECA         CLOUDY    36  32  87 SW14      29.73R
ALBERT LEA     CLOUDY    39  37  93 SW10      29.72S
$$
MNZ078>079-086>088-094>096-060700-
   Southeast Minnesota

CITY           SKY/WX    TMP DP  RH WIND       PRES   REMARKS
ROCHESTER      LGT SNOW  33  32  96 S17       29.73R FOG     WCI  22
6HR MIN TEMP:  33; 6HR MAX TEMP:  34; 6HR PCP:  0.05;

RED WING       CLOUDY    36  34  93 S10       29.70F
STANTON        CLOUDY    38  34  87 S12G18    29.68R
DODGE CENTER   CLOUDY    34  32  93 S20       29.71S FOG     WCI  22
WINONA         CLOUDY    36  32  87 SE6       29.77F
AUSTIN         LGT SNOW  34  30  86 S13       29.74R WCI  25
PRESTON        CLOUDY    31  29  92 S15G21    29.75F FOG     WCI  21
$$
ABBREVIATIONS USED IN REMARKS
   TC - TEMPERATURES IN CELSIUS
  WCI - WIND CHILL INDEX
   HX - HEAT INDEX
  VSB - VISIBILITY
$$



USA.gov is the U.S. government's official web portal to all federal, state and local government web resources and services.